Вернуться в каталог

STARLINK-30526

АктивенСвязьVLEO
NORAD 58006·PAYLOAD·🇺🇸 United States

Запущен Oct 5, 2023 с Cape Canaveral Space Force Station

Loading…

Ближайшие Пролёты (ближайшие 24 часа)

TLE

СвежийSource: CelesTrak SupGP

Эпоха: Sep 14, 2026, 22:37 UTC

1 58006C 23153R   26257.94284722  .00058328  00000+0  15635-2 0  2577
2 58006  43.0028  48.1388 0001788 274.9630 231.6458 15.37121920    16

Отслеживайте STARLINK-30526 в реальном времени с AllMySat

Download on the App Store